GW3041 Weather Reports


Display with metric or nautical units.
time (UTC)temp
F
wind
direction
speed
MPH
gust
MPH
rain 1hr
in
rain 24hr
in
rain mn
in
humidity
%
barometer
mb
20260503004516 51 199 0.0 2.0 0.00 0.00 0.00 85 1019.8
20260503003016 51 237 0.0 0.0 0.00 0.00 0.00 87 1020.0
20260503001508 51 237 0.0 0.0 0.00 0.00 0.00 86 1020.2
20260503000107 51 237 0.0 0.0 0.00 0.00 0.00 85 1020.2
20260502234546 52 237 0.0 0.0 0.00 0.00 0.00 84 1020.3
20260502233009 52 237 0.0 0.0 0.00 0.00 0.00 83 1020.4
20260502231600 53 237 0.0 0.0 0.00 0.00 0.00 83 1020.4
20260502230039 53 237 0.0 0.0 0.00 0.00 0.00 81 1020.4
20260502224518 54 237 0.0 0.0 0.00 0.00 0.00 81 1020.3
20260502223032 54 237 0.0 0.0 0.00 0.00 0.00 80 1020.4
20260502221507 55 237 0.0 0.0 0.00 0.00 0.00 77 1020.4
20260502220004 56 237 0.0 1.0 0.00 0.00 0.00 76 1020.3
20260502214617 57 237 0.0 1.0 0.00 0.00 0.00 74 1020.3
20260502213119 58 237 0.0 2.0 0.00 0.00 0.00 73 1020.2
20260502211553 59 166 0.0 2.0 0.00 0.00 0.00 69 1020.1
20260502210042 60 155 0.0 1.0 0.00 0.00 0.00 69 1019.9
20260502204539 61 305 0.0 2.0 0.00 0.00 0.00 66 1019.8
20260502203030 61 294 0.0 2.0 0.00 0.00 0.00 64 1019.7
20260502201515 63 320 1.0 3.0 0.00 0.00 0.00 63 1019.5
20260502200013 63 242 1.0 3.0 0.00 0.00 0.00 62 1019.4
20260502194501 63 279 1.0 3.0 0.00 0.00 0.00 63 1019.3
20260502193059 63 273 1.0 3.0 0.00 0.00 0.00 62 1019.1
20260502191558 64 243 2.0 7.0 0.00 0.00 0.00 62 1019.0
20260502190043 64 277 2.0 5.0 0.00 0.00 0.00 62 1018.8
20260502184539 65 247 1.0 3.0 0.00 0.00 0.00 62 1018.5
20260502183032 66 193 1.0 4.0 0.00 0.00 0.00 60 1018.3
20260502181521 67 253 1.0 5.0 0.00 0.00 0.00 58 1018.0
20260502163047 68 228 1.0 3.0 0.00 0.00 0.00 57 1017.6
20260502161546 67 278 1.0 4.0 0.00 0.00 0.00 55 1017.6
20260502151604 68 236 1.0 3.0 0.00 0.00 0.00 58 1018.0
20260502123111 73 90 8.0 15.0 0.00 0.00 0.00 47 1020.5
20260502121543 72 142 5.0 16.0 0.00 0.00 0.00 48 1020.7
20260502114526 72 135 8.0 14.0 0.00 0.00 0.00 47 1021.3
20260502113016 71 124 7.0 12.0 0.00 0.00 0.00 51 1021.5
20260502111509 70 113 5.0 17.0 0.00 0.00 0.00 51 1021.8
20260502110003 70 115 5.0 14.0 0.00 0.00 0.00 52 1022.3
20260502104558 70 113 8.0 13.0 0.00 0.00 0.00 56 1022.6
20260502103054 70 87 4.0 11.0 0.00 0.00 0.00 59 1022.8
20260502101547 68 139 4.0 13.0 0.00 0.00 0.00 60 1023.1
20260502091521 65 99 1.0 7.0 0.00 0.00 0.00 63 1024.2
20260502080105 60 255 0.0 3.0 0.00 0.00 0.00 68 1025.3
20260502071528 55 20 0.0 3.0 0.00 0.00 0.00 81 1025.8
20260502070023 54 314 2.0 3.0 0.00 0.00 0.00 81 1025.8
20260502064517 53 135 1.0 4.0 0.00 0.00 0.00 85 1025.9
20260502063009 51 85 0.0 2.0 0.00 0.00 0.00 90 1026.0
20260502061602 47 229 0.0 0.0 0.00 0.00 0.00 92 1026.1
20260502060055 46 229 0.0 0.0 0.00 0.00 0.00 92 1026.2
20260502054551 46 229 0.0 0.0 0.00 0.00 0.00 92 1026.4
20260502053042 45 229 0.0 0.0 0.00 0.00 0.00 93 1026.3
20260502051537 45 229 0.0 2.0 0.00 0.00 0.00 93 1026.3
20260502050030 44 229 0.0 2.0 0.00 0.00 0.00 92 1026.3
20260502044519 44 229 0.0 0.0 0.00 0.00 0.00 92 1026.1
20260502043012 44 229 0.0 2.0 0.00 0.00 0.00 92 1026.1
20260502041508 44 229 0.0 0.0 0.00 0.00 0.00 92 1025.9
20260502040106 44 228 0.0 0.0 0.00 0.00 0.00 92 1025.9
20260502034558 44 228 0.0 0.0 0.00 0.00 0.00 92 1025.8
20260502033051 44 228 0.0 0.0 0.00 0.00 0.00 92 1025.7
20260502031544 44 228 0.0 0.0 0.00 0.00 0.00 92 1025.6
20260502030036 45 228 0.0 0.0 0.00 0.00 0.00 92 1025.7
20260502024529 45 228 0.0 0.0 0.00 0.00 0.00 92 1025.6
20260502023022 45 228 0.0 0.0 0.00 0.00 0.00 91 1025.5
20260502021518 45 228 0.0 1.0 0.00 0.00 0.00 91 1025.5
20260502020012 45 229 0.0 0.0 0.00 0.00 0.00 91 1025.4
20260502014509 46 229 0.0 0.0 0.00 0.00 0.00 91 1025.4
20260502013002 46 229 0.0 0.0 0.00 0.00 0.00 91 1025.5
20260502011601 46 229 0.0 0.0 0.00 0.00 0.00 90 1025.5
20260502010056 46 229 0.0 0.0 0.00 0.00 0.00 90 1025.4